Weather in Malaya Yel'nya

Russia / Nizhny Novgorod Oblast'     56°12′19″N   44°08′52″E
temp.,
°C
wind,
m/s
gust,
m/s
humid.,
%
clouds,
%
prec.,
mm/h
press.,
hPa
HPBL,
m
26 october, tue
tue2600:00−1sw5137289 0.0 1025460
03:000sw61467100 0.0 1023542
06:00+1sw6137095 0.0 1022543
09:00+1wsw6137333 0.0 1021533
12:00+4wsw61065100 0.0 1020632
15:00+4wsw5116495 0.0 1019694
18:00+3wsw5137192 0.0 1019515
21:00+3wsw51371100 0.0 1019500
27 october, wed
wed2700:00+2sw51273100 0.0 1018466
03:00+2sw51276100 0.0 1017457
06:00+2sw51277100 0.0 1016444
09:00+3sw51271100 0.0 1015510
12:00+5sw61359100 0.0 1013686
15:00+6sw61357100 0.0 1011817
18:00+5sw71463100 0.0 1009917
21:00+3wsw71396100 0.3 1008771
28 october, thu
thu2800:00+4wsw61390100 0.6 1009735
03:00+5w61285100 0.6 1009770
06:00+5w51085100 0.1 10091016
09:00+6wsw51079100 0.1 1010616
12:00+7wsw4872100 0.0 1010723
15:00+7wsw3579100 0.2 1009815
18:00+6nnw1291100 1.1 1010122
21:00+5n4891100 1.8 10121032
29 october, fri
fri2900:000nne6127136 0.1 1018721
03:00−3nne511745 0.1 1023703
06:00−3nne49705 0.0 1027621
09:00−2ne36580 0.0 1030541
12:00+1ne22405 0.0 1032681
15:00+1s113941 0.0 1032540
18:00−2ssw245390 0.0 103380
21:00−1ssw41054100 0.0 1032319
30 october, sat
sat3000:000sw51452100 0.0 1031520
03:000sw61656100 0.0 1030484
06:00+1wsw61460100 0.0 1029447
09:00+2wsw51466100 0.0 1029444
12:00+5wsw51364100 0.0 1028471
15:00+6wsw614665 0.0 1028522
18:00+4wsw6157787 0.0 1028413
21:00+4wsw61579100 0.0 1028422